EWG2834 LOWS-LIEO

Flight info

Callsign EWG2834
Flight time 1h 23m
Altitude 37000
Route DETSA DCT TINTO Q710 GITRI
Aircraft A320/M-SDE3FGHIRWY/LB1

Departure

Time 2026-05-04 09:53
Airport Salzburg Airport (LOWS)

Arrival

Time 2026-05-04 11:16
Airport Olbia Costa Smeralda Airport (LIEO)
Time Latitude Longitude Altitude Speed Heading
2026-05-04 09:29 47.79145 12.99924 1420 ft 0 kts 281°
2026-05-04 09:30 47.79090 12.99960 1420 ft 0 kts 282°
2026-05-04 09:46 47.79088 12.99975 1420 ft 2 kts 278°
2026-05-04 09:46 47.79085 12.99998 1420 ft 2 kts 281°
2026-05-04 09:47 47.79082 13.00022 1420 ft 2 kts 282°
2026-05-04 09:47 47.79079 13.00046 1420 ft 2 kts 281°
2026-05-04 09:49 47.79139 13.00039 1420 ft 19 kts 337°
2026-05-04 09:49 47.79262 12.99961 1420 ft 18 kts 337°
2026-05-04 09:49 47.79346 13.00018 1420 ft 16 kts 67°
2026-05-04 09:51 47.80031 12.99688 1421 ft 19 kts 337°
2026-05-04 09:51 47.80157 12.99607 1421 ft 20 kts 341°
2026-05-04 09:51 47.80258 12.99643 1421 ft 13 kts 52°
2026-05-04 09:51 47.80286 12.99764 1421 ft 12 kts 84°
2026-05-04 09:52 47.80254 12.99809 1420 ft 0 kts 154°
2026-05-04 09:52 47.80228 12.99827 1421 ft 28 kts 155°
2026-05-04 09:52 47.79743 13.00138 1421 ft 120 kts 156°
2026-05-04 09:52 47.78769 13.00769 1588 ft 171 kts 155°
2026-05-04 09:53 47.77715 13.01487 2700 ft 163 kts 148°
2026-05-04 09:53 47.76778 13.02415 3561 ft 167 kts 144°
2026-05-04 09:53 47.75825 13.03464 4350 ft 173 kts 133°
2026-05-04 09:53 47.75345 13.05054 5159 ft 175 kts 91°
2026-05-04 09:54 47.75687 13.06782 6013 ft 180 kts 56°
2026-05-04 09:54 47.76704 13.07896 6848 ft 193 kts 17°
2026-05-04 09:54 47.78073 13.07810 7551 ft 210 kts 335°
2026-05-04 09:54 47.79222 13.06387 8417 ft 213 kts 305°
2026-05-04 09:55 47.80010 13.04650 9830 ft 196 kts 298°
2026-05-04 09:55 47.80534 13.02728 10489 ft 211 kts 272°
2026-05-04 09:55 47.80255 13.00550 11000 ft 231 kts 238°
2026-05-04 09:55 47.79037 12.98874 11563 ft 255 kts 208°
2026-05-04 09:56 47.77381 12.97606 12190 ft 280 kts 206°
2026-05-04 09:56 47.75553 12.96293 12725 ft 304 kts 206°
2026-05-04 09:56 47.73566 12.94887 13232 ft 327 kts 206°
2026-05-04 09:56 47.71483 12.93405 14032 ft 336 kts 206°
2026-05-04 09:57 47.69362 12.91883 14888 ft 341 kts 206°
2026-05-04 09:57 47.67214 12.90329 15776 ft 346 kts 206°
2026-05-04 09:57 47.65042 12.88748 16641 ft 350 kts 207°
2026-05-04 09:57 47.62844 12.87144 17505 ft 355 kts 207°
2026-05-04 09:58 47.60641 12.85541 18342 ft 360 kts 207°
2026-05-04 09:58 47.58382 12.83902 19056 ft 365 kts 206°
2026-05-04 09:58 47.56082 12.82234 19761 ft 370 kts 206°
2026-05-04 10:00 47.39113 12.69983 24381 ft 406 kts 207°
2026-05-04 10:00 47.36568 12.68151 24954 ft 409 kts 207°
2026-05-04 10:02 47.18197 12.54982 28821 ft 430 kts 208°
2026-05-04 10:04 46.98900 12.41252 31935 ft 449 kts 207°
2026-05-04 10:04 46.96093 12.39274 32544 ft 446 kts 207°
2026-05-04 10:04 46.93300 12.37307 33148 ft 444 kts 207°
2026-05-04 10:04 46.90563 12.35377 33748 ft 441 kts 207°
2026-05-04 10:05 46.87809 12.33435 34331 ft 439 kts 207°
2026-05-04 10:05 46.85067 12.31505 34849 ft 437 kts 207°
2026-05-04 10:05 46.82331 12.29589 35355 ft 435 kts 206°
2026-05-04 10:05 46.79488 12.28067 35809 ft 437 kts 197°
2026-05-04 10:06 46.76507 12.27168 36263 ft 437 kts 192°
2026-05-04 10:06 46.73516 12.26429 36704 ft 436 kts 192°
2026-05-04 10:06 46.70525 12.25692 37091 ft 436 kts 192°
2026-05-04 10:08 46.49749 12.20529 37155 ft 433 kts 192°
2026-05-04 10:08 46.43806 12.19063 37135 ft 433 kts 192°
2026-05-04 10:09 46.37901 12.17602 37116 ft 433 kts 192°
2026-05-04 10:09 46.31958 12.16127 37110 ft 433 kts 192°
2026-05-04 10:10 46.26006 12.14674 37115 ft 434 kts 191°
2026-05-04 10:10 46.20043 12.13229 37121 ft 434 kts 192°
2026-05-04 10:11 46.14120 12.11779 37119 ft 435 kts 192°
2026-05-04 10:11 46.08160 12.10319 37123 ft 435 kts 192°
2026-05-04 10:12 46.02188 12.08863 37129 ft 435 kts 192°
2026-05-04 10:12 45.96217 12.07415 37138 ft 435 kts 192°
2026-05-04 10:13 45.90240 12.05972 37137 ft 436 kts 192°
2026-05-04 10:13 45.84302 12.04542 37141 ft 436 kts 192°
2026-05-04 10:14 45.78325 12.03104 37141 ft 436 kts 192°
2026-05-04 10:16 45.54391 11.97368 37137 ft 437 kts 192°
2026-05-04 10:16 45.48385 11.95933 37135 ft 437 kts 192°
2026-05-04 10:17 45.42383 11.94501 37135 ft 437 kts 192°
2026-05-04 10:19 45.18387 11.88828 37134 ft 438 kts 191°
2026-05-04 10:19 45.12372 11.87412 37131 ft 438 kts 192°
2026-05-04 10:20 45.06364 11.85990 37132 ft 438 kts 192°
2026-05-04 10:20 45.00382 11.84582 37133 ft 438 kts 192°
2026-05-04 10:21 44.94361 11.83168 37134 ft 439 kts 192°
2026-05-04 10:21 44.88361 11.81769 37136 ft 439 kts 192°
2026-05-04 10:22 44.79325 11.79678 37136 ft 439 kts 192°
2026-05-04 10:23 44.73340 11.78295 37139 ft 439 kts 192°
2026-05-04 10:25 44.49285 11.72724 37125 ft 439 kts 192°
2026-05-04 10:25 44.43264 11.71346 37126 ft 438 kts 192°
2026-05-04 10:26 44.37240 11.69965 37130 ft 438 kts 192°
2026-05-04 10:26 44.31221 11.68588 37133 ft 439 kts 192°
2026-05-04 10:27 44.25194 11.67207 37134 ft 439 kts 192°
2026-05-04 10:27 44.19211 11.65846 37141 ft 439 kts 192°
2026-05-04 10:28 44.13182 11.64481 37138 ft 439 kts 192°
2026-05-04 10:28 44.07157 11.63108 37138 ft 439 kts 192°
2026-05-04 10:29 44.01133 11.61744 37136 ft 439 kts 192°
2026-05-04 10:29 43.95153 11.60390 37139 ft 439 kts 192°
2026-05-04 10:30 43.89124 11.59040 37135 ft 439 kts 192°
2026-05-04 10:30 43.83094 11.57683 37145 ft 439 kts 192°
2026-05-04 10:31 43.77099 11.56334 37141 ft 439 kts 192°
2026-05-04 10:32 43.56042 11.51621 37163 ft 442 kts 192°
2026-05-04 10:33 43.49968 11.50276 37166 ft 442 kts 192°
2026-05-04 10:33 43.43929 11.48939 37168 ft 443 kts 192°
2026-05-04 10:34 43.37846 11.47580 37165 ft 443 kts 193°
2026-05-04 10:34 43.31761 11.46219 37161 ft 443 kts 192°
2026-05-04 10:35 43.25669 11.44875 37153 ft 443 kts 192°
2026-05-04 10:35 43.19618 11.43546 37153 ft 443 kts 193°
2026-05-04 10:36 43.13526 11.42213 37150 ft 444 kts 193°
2026-05-04 10:36 43.07421 11.40883 37148 ft 444 kts 193°
2026-05-04 10:37 43.01320 11.39553 37149 ft 445 kts 193°
2026-05-04 10:37 42.95267 11.38228 37152 ft 445 kts 193°
2026-05-04 10:39 42.73830 11.33548 37150 ft 446 kts 193°
2026-05-04 10:40 42.67735 11.32230 37161 ft 447 kts 193°
2026-05-04 10:40 42.61589 11.30906 37166 ft 448 kts 193°
2026-05-04 10:41 42.55433 11.29580 37166 ft 448 kts 193°
2026-05-04 10:41 42.49280 11.28256 37163 ft 448 kts 193°
2026-05-04 10:42 42.43157 11.26933 37168 ft 449 kts 193°
2026-05-04 10:42 42.36988 11.25606 37165 ft 449 kts 193°
2026-05-04 10:43 42.30805 11.24298 37166 ft 450 kts 193°
2026-05-04 10:45 42.06082 11.19032 37170 ft 451 kts 194°
2026-05-04 10:45 41.99878 11.17713 37163 ft 451 kts 194°
2026-05-04 10:46 41.93673 11.16389 37168 ft 452 kts 194°
2026-05-04 10:46 41.87501 11.15087 37158 ft 452 kts 194°
2026-05-04 10:47 41.81284 11.13784 37159 ft 453 kts 194°
2026-05-04 10:47 41.75057 11.12485 37153 ft 453 kts 194°
2026-05-04 10:49 41.50387 11.06498 37167 ft 453 kts 210°
2026-05-04 10:50 41.45153 11.01897 37164 ft 453 kts 229°
2026-05-04 10:51 41.31862 10.80173 36797 ft 423 kts 237°
2026-05-04 10:52 41.30013 10.77092 35803 ft 428 kts 237°
2026-05-04 10:52 41.28152 10.73992 34884 ft 431 kts 237°
2026-05-04 10:52 41.26296 10.70902 33845 ft 436 kts 237°
2026-05-04 10:54 41.12884 10.48772 27098 ft 428 kts 235°
2026-05-04 10:54 41.11029 10.45713 26289 ft 424 kts 235°
2026-05-04 10:56 40.98428 10.25092 21221 ft 394 kts 233°
2026-05-04 10:56 40.96710 10.22287 20604 ft 389 kts 233°
2026-05-04 10:56 40.95091 10.19455 19978 ft 383 kts 240°
2026-05-04 10:57 40.93969 10.16363 19374 ft 377 kts 252°
2026-05-04 10:57 40.93389 10.13000 18743 ft 374 kts 263°
2026-05-04 10:57 40.93380 10.09569 18060 ft 374 kts 275°
2026-05-04 10:57 40.93720 10.06168 17380 ft 371 kts 277°
2026-05-04 10:58 40.94062 10.02797 16725 ft 369 kts 277°
2026-05-04 10:58 40.94398 9.99445 16063 ft 367 kts 277°
2026-05-04 10:58 40.94731 9.96102 15416 ft 366 kts 277°
2026-05-04 10:58 40.94931 9.92764 14763 ft 364 kts 268°
2026-05-04 10:59 40.94565 9.89504 14111 ft 364 kts 255°
2026-05-04 10:59 40.93588 9.86466 13826 ft 352 kts 240°
2026-05-04 10:59 40.92264 9.83832 13686 ft 337 kts 236°
2026-05-04 10:59 40.90968 9.81330 13548 ft 323 kts 236°
2026-05-04 11:00 40.89729 9.78934 13412 ft 311 kts 236°
2026-05-04 11:01 40.81862 9.63810 12406 ft 276 kts 236°
2026-05-04 11:02 40.80771 9.61729 12217 ft 275 kts 235°
2026-05-04 11:02 40.79685 9.59658 12033 ft 274 kts 236°
2026-05-04 11:05 40.64925 9.31569 9510 ft 254 kts 235°
2026-05-04 11:06 40.63928 9.29678 9386 ft 250 kts 235°
2026-05-04 11:06 40.62939 9.27802 9231 ft 249 kts 234°
2026-05-04 11:06 40.61992 9.25910 9086 ft 244 kts 243°
2026-05-04 11:06 40.61563 9.23808 8960 ft 235 kts 267°
2026-05-04 11:08 40.70091 9.15611 7131 ft 237 kts 22°
2026-05-04 11:10 40.76741 9.26797 4966 ft 200 kts 58°
2026-05-04 11:12 40.81933 9.36649 2972 ft 181 kts 57°
2026-05-04 11:12 40.82638 9.37988 2671 ft 170 kts 57°
2026-05-04 11:12 40.83276 9.39198 2419 ft 153 kts 58°
2026-05-04 11:12 40.83867 9.40323 2194 ft 145 kts 58°
2026-05-04 11:13 40.84443 9.41422 1972 ft 145 kts 57°
2026-05-04 11:13 40.85010 9.42502 1737 ft 139 kts 60°
2026-05-04 11:13 40.85544 9.43517 1537 ft 134 kts 59°
2026-05-04 11:13 40.86067 9.44500 1318 ft 128 kts 57°
2026-05-04 11:14 40.86595 9.45431 1116 ft 127 kts 56°
2026-05-04 11:14 40.87082 9.46369 951 ft 125 kts 59°
2026-05-04 11:14 40.87566 9.47314 817 ft 122 kts 59°
2026-05-04 11:16 40.90113 9.52032 34 ft 8 kts 31°
2026-05-04 11:16 40.90161 9.52020 34 ft 7 kts 329°
2026-05-04 11:16 40.90174 9.51962 34 ft 7 kts 274°
2026-05-04 11:17 40.90179 9.51893 34 ft 8 kts 278°
2026-05-04 11:17 40.90193 9.51822 34 ft 8 kts 292°
2026-05-04 11:19 40.90246 9.51663 34 ft 0 kts 325°